Weather History for KTCS - October, 2012

Change the Weather History Date:

Thursday, October 11, 2012

  Actual Average Record
Temperature  
Mean Temperature 64 °F -  
Max Temperature 77 °F 76 °F 88 °F (1996)
Min Temperature 52 °F 49 °F 42 °F (2001)
Degree Days  
Heating Degree Days 0    
Month to date heating degree days  
Since 1 July heating degree days  
Cooling Degree Days 0    
Month to date cooling degree days  
Year to date cooling degree days  
Growing Degree Days 14 (Base 50)    
Moisture  
Dew Point 37 °F    
Average Humidity 35    
Maximum Humidity 55    
Minimum Humidity 14    
Precipitation  
Precipitation 0.00 in - 0.62 in (2000)
Month to date precipitation  
Year to date precipitation  
Sea Level Pressure  
Sea Level Pressure 29.90 in    
Wind  
Wind Speed 6 mph (WSW)    
Max Wind Speed 22 mph    
Max Gust Speed 29 mph    
Visibility 10 miles    
Events      
T = Trace of Precipitation, MM = Missing Value Source: NWS Daily Summary

Daily Weather History Graph

Daily Weather History Graph

Search for Another Location

Airport or City:

Trip Planner

Search our weather history database for the weather conditions in past years. The results will help you decide how hot, cold, wet, or windy it might be!

Date:

Astronomy

Oct. 11, 2012 Rise Set
Actual Time 7:10 AM MDT 6:39 PM MDT
Civil Twilight 6:46 AM MDT 7:04 PM MDT
Nautical Twilight 6:17 AM MDT 7:33 PM MDT
Astronomical Twilight 5:48 AM MDT 8:02 PM MDT
Moon 3:04 AM MDT (10/11) 4:08 PM MDT (10/11)
Length of Visible Light 12h 18m
Length of Day
11h 28m
Waning Crescent, 18% of the Moon is Illuminated
Oct 11
Waning Crescent
Oct 15
New
Oct 21
First Quarter
Oct 29
Full
Nov 6
Last Quarter

Hourly Weather History & Observations

Time (MDT) Temp. Dew Point Humidity Pressure Visibility Wind Dir Wind Speed Gust Speed Precip Events Conditions
12:53 AM 59.0 °F 27.0 °F 29% 29.86 in 10.0 mi WNW 4.6 mph - N/A   Clear
1:53 AM 57.9 °F 28.0 °F 32% 29.86 in 10.0 mi NW 5.8 mph - N/A   Clear
2:53 AM 57.0 °F 28.0 °F 33% 29.84 in 10.0 mi WNW 6.9 mph - N/A   Clear
3:53 AM 55.9 °F 28.9 °F 36% 29.83 in 10.0 mi WNW 6.9 mph - N/A   Clear
4:53 AM 54.0 °F 28.9 °F 38% 29.86 in 10.0 mi West 6.9 mph - N/A   Clear
5:53 AM 55.9 °F 30.0 °F 37% 29.87 in 10.0 mi NW 3.5 mph - N/A   Partly Cloudy
6:53 AM 55.9 °F 30.9 °F 39% 29.89 in 10.0 mi North 5.8 mph - N/A   Clear
7:53 AM 55.0 °F 30.9 °F 40% 29.93 in 10.0 mi NW 6.9 mph - N/A   Clear
8:53 AM 64.0 °F 34.0 °F 33% 29.93 in 10.0 mi Calm Calm - N/A   Partly Cloudy
9:53 AM 68.0 °F 35.1 °F 30% 29.95 in 10.0 mi Calm Calm - N/A   Partly Cloudy
10:53 AM 71.1 °F 37.9 °F 30% 29.93 in 10.0 mi South 4.6 mph - N/A   Clear
11:53 AM 73.9 °F 35.1 °F 24% 29.92 in 10.0 mi SSE 5.8 mph - N/A   Scattered Clouds
12:53 PM 77.0 °F 28.9 °F 17% 29.92 in 10.0 mi South 8.1 mph - 0.00 in   Mostly Cloudy
1:53 PM 73.0 °F 33.1 °F 23% 29.91 in 10.0 mi South 16.1 mph - N/A   Overcast
2:53 PM 73.9 °F 42.1 °F 32% 29.91 in 10.0 mi South 21.9 mph 28.8 mph N/A   Mostly Cloudy
3:53 PM 72.0 °F 44.1 °F 37% 29.91 in 10.0 mi South 9.2 mph - 0.00 in   Mostly Cloudy
4:53 PM 73.0 °F 42.1 °F 33% 29.88 in 10.0 mi SSE 5.8 mph - 0.00 in   Clear
5:53 PM 72.0 °F 44.1 °F 37% 29.89 in 10.0 mi SE 8.1 mph - N/A   Clear
6:53 PM 69.1 °F 44.1 °F 40% 29.91 in 10.0 mi ESE 4.6 mph - N/A   Clear
7:53 PM 66.9 °F 45.0 °F 45% 29.94 in 10.0 mi SSE 5.8 mph - N/A   Clear
8:53 PM 63.0 °F 44.1 °F 50% 29.94 in 10.0 mi Calm Calm - N/A   Clear
9:53 PM 64.0 °F 44.1 °F 48% 29.93 in 10.0 mi NW 4.6 mph - N/A   Clear
10:53 PM 61.0 °F 43.0 °F 52% 29.91 in 10.0 mi NW 8.1 mph - N/A   Clear
11:53 PM 59.0 °F 43.0 °F 55% 29.90 in 10.0 mi NW 4.6 mph - N/A   Clear